{"data":{"norad_id":68556,"intl_designator":"2026-070Q","name":"STARLINK-37144","alt_names":[],"object_type":"PAYLOAD","status":"ACTIVE","operator":null,"country":"US","launch_date":"2026-04-02","launch_site_code":"AFETR","launch_vehicle":null,"mission":null,"orbit_class":"UNKNOWN","rcs_meters":null,"size_class":null,"mass_kg":null,"dimensions":null,"purposes":["comms"],"wikipedia_slug":null,"has_3d_model":false,"image_url":null,"decayed_at":null,"tle_current":{"epoch":"2026-09-19T21:06:45.622944Z","epoch_age_seconds":98606,"freshness":"FRESH","line1":"1 68556U 26070Q   26262.87969471  .00019796  00000+0  59543-3 0  9994","line2":"2 68556  53.1581 176.4945 0001814  90.9386 269.1824 15.34402043 26343","mean_motion":15.34402043,"eccentricity":0.0001814,"inclination_deg":53.1581,"raan_deg":176.4945,"arg_perigee_deg":90.9386,"mean_anomaly_deg":269.1824,"bstar":0.00059543,"rev_number":2634,"period_min":93.84763312649,"perigee_km":461.45624066923,"apogee_km":463.93809530537,"semimajor_km":6840.8341679873,"source":"CELESTRAK","updated_at":"2026-09-20T09:00:43.935516Z"}}}